Regional Weather Roundup
Issued by NWS Burlington, VT

Home | Current Version | Previous Version | Text Only | Print | Product List | Glossary On
Versions: 1 2 3 4 5 6 7 8 9 10 11 12 13 14 15 16 17 18 19 20 21 22 23 24 25 26 27 28 29 30 31 32 33 34 35 36 37 38 39 40 41 42 43 44 45 46 47 48 49 50
000
ASUS41 KBTV 010030
RWRBTV
VERMONT REGIONAL WEATHER ROUNDUP
NATIONAL WEATHER SERVICE BURLINGTON VT
700 PM EST SAT JAN 31 2015

NOTE: "FAIR" INDICATES FEW OR NO CLOUDS BELOW 12,000 FEET WITH NO
SIGNIFICANT WEATHER AND/OR OBSTRUCTIONS TO VISIBILITY.

* THESE REPORTS ARE NOT UNDER NWS QUALITY CONTROL AND/OR DO NOT
  REPORT WEATHER SUCH AS PRECIPITATION AND FOG.

VTZ001>019-010100-
_____VERMONT_____


CITY           SKY/WX    TMP DP  RH WIND       PRES   REMARKS
BURLINGTON     FAIR       2 -12  52 SE5       30.17R
6HR MIN TEMP:   1; 6HR MAX TEMP:   8;

MONTPELIER     FAIR       3 -12  49 NW8       30.07R
6HR MIN TEMP:   2; 6HR MAX TEMP:   6;

MORRISVILLE    FAIR       1 -13  51 N6        30.12R
6HR MIN TEMP:   0; 6HR MAX TEMP:   5;

ST. JOHNSBURY*   N/A     -1 -10  65 MISG      30.07R
6HR MIN TEMP:  -1; 6HR MAX TEMP:   8;

LYNDONVILLE*   FAIR      -1 -15  52 W6        30.04R
6HR MIN TEMP:  -2; 6HR MAX TEMP:   5;

MIDDLEBURY*    FAIR      -1  -8  72 CALM      30.14S
6HR MIN TEMP:   0; 6HR MAX TEMP:  10;

RUTLAND*       FAIR       3  -9  55 N6        30.09S
SPRINGFIELD    FAIR      10  -9  42 W13G29    30.07R WCI  -5
6HR MIN TEMP:  10; 6HR MAX TEMP:  12;

HIGHGATE*      FAIR      -4 -13  65 CALM      30.19R
6HR MIN TEMP:  -4; 6HR MAX TEMP:   5;

NEWPORT*       FAIR      -4 -15  60 CALM      30.07S
6HR MIN TEMP:  -4; 6HR MAX TEMP:   1;

BENNINGTON     FAIR       2  -8  63 CALM      30.10R
6HR MIN TEMP:   2; 6HR MAX TEMP:  11;

SUTTON*          N/A     -4 N/A N/A MISG        N/A
MT. MANSFIELD*   N/A     -8 N/A N/A CALM        N/A

_____LAKE CHAMPLAIN_____


CITY           SKY/WX    TMP DP  RH WIND       PRES   REMARKS
BURTON ISLAND*   N/A      5  -9  51 NE2         N/A
COLCHESTER RF*   N/A     14  -4  44 NW14        N/A  WCI  -1
DIAMOND ISL*     N/A     10  -4  52 E5          N/A

$$

NYZ007-026>031-035-052-083-010100-
_____NORTHERN NEW YORK_____


CITY           SKY/WX    TMP DP  RH WIND       PRES   REMARKS
PLATTSBURGH    FAIR       8 -11  41 CALM      30.17R
6HR MIN TEMP:   8; 6HR MAX TEMP:  14; 6HR PCP: TRACE;

SARANAC LAKE   FAIR      -5 -12  72 CALM      30.05R
6HR MIN TEMP:  -5; 6HR MAX TEMP:   6;

MASSENA        FAIR       1 -12  54 SW3       30.22S
6HR MIN TEMP:   0; 6HR MAX TEMP:   5;

OGDENSBURG*    PTCLDY     1  -8  66 S5        30.21R
POTSDAM*       MOCLDY     1  -8  66 SW5       30.20R
WATERTOWN      CLOUDY    10   0  63 S5        30.22S
6HR MIN TEMP:   6; 6HR MAX TEMP:  12;

FT DRUM        CLOUDY     7  -2  66 S5        30.17F
6HR MIN TEMP:   3; 6HR MAX TEMP:   7; 6HR PCP: TRACE;

ALBANY         FAIR      13  -1  54 NW9       30.18S
6HR MIN TEMP:  11; 6HR MAX TEMP:  14;

GLENS FALLS    FAIR       0  -9  65 CALM      30.17R
6HR MIN TEMP:   0; 6HR MAX TEMP:  17;


$$
NHZ002-005-011-010100-
_____NEW HAMPSHIRE_____


CITY           SKY/WX    TMP DP  RH WIND       PRES   REMARKS
LEBANON        FAIR       9  -9  44 N5        30.05R
6HR MIN TEMP:   6; 6HR MAX TEMP:  14; 6HR PCP: TRACE;

KEENE          FAIR      10  -8  44 CALM      30.04S
6HR MIN TEMP:  10; 6HR MAX TEMP:  16;

MT WASHINGTON  CLEAR     -6 -17  59 NW86G94     N/A  WCI -45
6HR MIN TEMP: -11; 6HR MAX TEMP:  -4;

PLYMOUTH       FAIR       8  -7  51 W13G24    30.00F WCI  -8
6HR MIN TEMP:   7; 6HR MAX TEMP:  12;

WHITEFIELD     FAIR     -11 -16  78 CALM      30.01S
6HR MIN TEMP: -11; 6HR MAX TEMP:   7;


$$

_____REGIONAL QUEBEC LOCATIONS_____


CITY           SKY/WX    TMP DP  RH WIND       PRES   REMARKS
MONTREAL       CLEAR      1 -11  55 W13       30.20R WCI -16
QUEBEC CITY    CLEAR      1  -8  66 W20G25    30.02R WCI -20
SHERBROOKE     CLEAR     -4 -13  65 W13       30.06R WCI -23

_____REGIONAL ONTARIO LOCATIONS_____


CITY           SKY/WX    TMP DP  RH WIND       PRES   REMARKS
OTTAWA         MOCLDY     3  -8  60 S7        30.17F

______KEY______
VSB  - VISIBILITY IN MILES
WCI  - WIND CHILL INDEX
HX   - HEAT INDEX
$$



USA.gov is the U.S. government's official web portal to all federal, state and local government web resources and services.